Simultaneous Nadir Overpasses (SNOs) Predictions

Prediction of SNOs between METOP-A and TERRA Satellite Orbit:

Table of predicted SNOs for the next 14.0 days since TLE Epoch: 9/24/2016
Index Date (METOP-A) Time (METOP-A) Lat,Lon (METOP-A) SZA (METOP-A ) Date (TERRA) Time (TERRA) Lat,Lon (TERRA) SZA (TERRA ) Distance(km) Time Diff (sec)
1 09/25/2016 14:29:38 -81.28,-170.78 94.60 09/25/2016 14:30:43 -81.29,-170.72 94.56 0.96 65
2 09/25/2016 15:20:18 81.29, -3.04 85.47 09/25/2016 15:20:09 81.29, -2.98 85.47 1.09 9
3 09/28/2016 10:04:01 -81.29,-104.33 93.48 09/28/2016 10:04:58 -81.28,-104.36 93.46 0.57 57
4 09/28/2016 10:54:41 81.29, 63.40 86.59 09/28/2016 10:54:24 81.29, 63.36 86.57 0.80 17
5 10/01/2016 05:38:24 -81.29, -37.90 92.37 10/01/2016 05:39:12 -81.29, -37.82 92.33 1.45 48
6 10/01/2016 06:29:04 81.29, 129.82 87.70 10/01/2016 06:28:38 81.29, 129.88 87.70 0.98 26
7 10/04/2016 01:12:46 -81.29, 28.52 91.26 10/04/2016 01:13:25 -81.28, 28.53 91.24 0.38 39
8 10/04/2016 02:03:26 81.29,-163.77 88.81 10/04/2016 02:02:51 81.29,-163.80 88.78 0.79 35
9 10/06/2016 20:47:09 -81.29, 94.92 90.16 10/06/2016 20:47:38 -81.29, 95.06 90.13 2.41 29




NCC Satellite Simultaneous Nadir Overpasses (SNOs) Prediction Service
